Volver al catálogo

PSLV-C54 PS4

ActivoSSO
NORAD 54362·ROCKET BODY·🇮🇳 India
Este nombre de satélite aún no ha sido confirmado por fuentes oficiales.

Lanzado Nov 26, 2022 desde Satish Dhawan Space Centre

Loading…

Próximos Pases (próximas 24 horas)

TLE

ActualizadoSource: Space-Track

Época: Sep 14, 2026, 22:11 UTC

1 54362U 22158B   26257.92455387  .00022449  00000-0  30993-3 0  9991
2 54362  97.4995  27.1263 0008922 348.4193  11.6856 15.57148626212703

Sigue PSLV-C54 PS4 en tiempo real con AllMySat

Download on the App Store